STARLINK-31907, 59797

Orbit data source: Space-Track

STARLINK-31907, 59797 is a payload satellite owned by SpaceX/Seattle (US) in LEO that was launched on Sat, 18 May 2024 UTC via an FALCON 9 launch vehicle from the Air Force Eastern Test Range (AFETR). Payload-class satellites include a variety of spacecraft equipped with specific instruments for various scientific and technological missions. These include communications satellites like Starlink; space stations such as the ISS; scientific satellites like the Hubble; Earth observation satellites from companies like Planet Labs, Umbra, and HawkEye 360; GPS; miniature CubeSats for education and research; and military/defense satellites.

Loading next visibility...
Identifier
59797, 2024-093R
Orbit
LEO
Country
Flag of USUS
Related business
Manufacturer
SpaceX/Seattle
Mission
Operational Commercial Communications
Bus & Motor
STARLINK V2M, Unknown motor
Mass
730 kg wet, ~700 kg dry
Launch date (UTC)
2024-05-18 (2 years ago)
Launch vehicle
FALCON 9
Launch site
Air Force Eastern Test Range (AFETR)
Object type
Payload
Rocket body
Debris
Shape & HBR
Box + 2 Pan, 17.7 m
Radar Cross Section
33.884 m², Large (>1 m²)

Expand to show TLE details & history
Last TLE update: 21 hours ago

TLE from 21 hours ago
0 STARLINK-31907
1 59797U 24093R   26125.69796280 -.00000015  00000-0  89968-5 0  9990
2 59797  43.0023 246.9776 0001869 291.8621  68.2032 15.27592568111414
Epoch: 2026-05-05T16:45Z
TLE epoch observation values (Epoch: 2026-05-05T16:45:03.985Z)
Latitude
-0.00003°
Longitude
132.14189°
Altitude
482.311 km
Speed
7.626 km/s
True Right ascension
16h 27m 54s
True Declination
0° 00' 00"
Sunlit
Object was in full shadow at epoch
Visualization orbit readout
Latitude
Unknown
Longitude
Unknown
Altitude
Unknown
Speed
Unknown
Apparent Right ascension
Unknown
Apparent Declination
Unknown
Sunlit
N/A
Visualization observer readout
Local Sidereal Time
21:17:11
Azimuth
Unknown
Elevation
Unknown
Doppler factor
Unknown
Orbital elements
Apogee altitude
486.239 km
Perigee altitude
483.674 km
Semi-major axis
6,863.093 km
Eccentricity
0.00019
Inclination
43.0023°
RAAN
246.9776°
Arg. of periapsis
291.8621°
True anomaly
68.22309°
Mean anomaly
68.2032°
Eccentric anomaly
68.21314°
Mean motion
3.81736 °/min
Orbital period
94.31 mins
BSTAR
0.0000089968
Loading maneuver chart data...
Computing Atmospheric mass density...
Loading historical data...
Loading historical data...
Loading historical data...
Loading historical data...
Loading historical data...
Loading historical data...
Loading historical data...

Documentation

Showing up to 5 results
|